Wind_Speed
16 12 6 10 13 13 16 12 9 8 8 11 11 15 19 20 17 10 4 6 7 7 5 6 9 9 9 6 9 7 12 17 19 25 28 31 39 31 34 32 33 35 29 26
16 18 9 12 12 12 14 10 7 9 5 8 9 13 18 19 16 8 1 5 6 8 9 7 8 10 12 8 9 12 6 13 18 20 24 26 33 34 29 30 27 26 27 26
18 18 13 14 14 13 13 11 9 8 3 6 6 14 25 17 18 10 7 6 6 5 5 6 6 10 14 10 9 12 9 7 14 18 18 20 25 34 32 31 29 28 29 28
22 19 18 16 15 14 13 14 8 3 3 2 12 19 23 20 19 16 17 13 6 4 5 5 7 8 15 17 14 13 15 12 11 13 16 20 25 28 30 28 27 28 28 27
26 22 21 16 15 13 11 11 9 1 2 7 11 18 18 22 19 16 17 17 12 6 3 6 6 6 9 17 19 16 13 14 15 14 15 17 20 24 27 32 31 29 26 26
27 26 23 17 15 14 10 10 4 6 9 8 12 14 23 20 16 18 19 22 16 15 11 7 5 9 10 8 13 15 17 15 14 17 16 17 19 22 24 26 31 25 24 24
32 29 26 17 14 15 9 4 7 12 9 4 10 11 23 21 19 19 25 28 24 22 20 12 4 4 6 10 11 14 14 16 16 16 17 18 21 24 27 27 27 24 25 27
38 34 28 19 15 15 10 4 7 10 7 6 11 9 19 18 17 17 23 26 22 21 20 19 15 8 6 4 4 11 17 18 18 20 20 19 21 25 30 29 28 27 30 31
40 33 30 21 15 15 11 5 5 9 2 4 9 10 15 16 13 12 18 23 17 16 14 14 16 15 16 9 10 7 9 15 17 20 23 23 24 25 23 26 26 26 28 29
45 37 31 24 19 16 13 7 4 6 4 4 7 7 9 12 11 9 15 18 15 15 15 12 12 12 11 11 12 10 10 8 15 19 23 25 26 27 28 28 24 22 24 26
46 39 35 29 22 18 16 12 6 7 7 9 3 8 3 10 8 8 12 15 14 16 15 15 14 13 13 11 11 12 11 9 8 6 13 20 24 27 28 29 29 29 30 31
49 43 38 33 23 20 20 17 13 3 3 8 1 5 1 8 7 6 11 14 13 12 13 13 13 14 14 12 11 11 11 11 7 11 17 14 1 14 19 23 26 31 33 34
52 46 43 33 24 24 24 20 16 9 5 8 7 2 3 11 10 8 11 11 11 11 11 9 9 10 12 13 13 12 11 9 8 3 5 12 12 5 0 3 7 11 17 24
56 49 43 38 37 30 28 25 19 15 12 8 3 5 8 14 12 9 11 11 10 10 9 9 9 9 9 9 9 10 11 10 10 7 9 11 11 10 6 6 10 14 17 23
60 53 47 47 36 31 29 26 21 22 16 10 4 4 5 10 8 9 10 9 9 7 7 7 6 6 6 5 4 4 5 3 2 2 3 4 5 3 5 9 13 16 16 18
61 58 53 50 39 33 30 26 27 22 21 10 12 9 7 7 4 6 7 6 6 4 5 5 4 3 1 2 2 3 3 3 4 6 7 8 8 7 7 8 8 15 26 25
62 61 55 51 44 37 28 28 23 25 19 17 18 11 14 9 3 7 9 7 4 4 4 4 3 3 3 4 4 5 6 7 8 9 9 10 12 14 15 16 16 18 20 24
64 64 59 57 50 35 34 29 28 29 24 21 14 11 10 8 1 6 7 3 5 5 5 5 4 4 4 4 6 6 7 8 8 9 10 10 11 11 13 15 18 19 20 23
67 69 63 61 48 42 34 29 24 24 26 24 14 12 12 8 2 1 4 1 2 4 7 6 5 3 3 5 5 4 4 4 5 5 7 9 11 13 16 18 20 22 25 30
71 74 70 65 53 44 35 35 31 29 23 18 22 15 11 9 6 4 5 6 5 4 5 6 6 6 7 6 5 4 4 5 7 10 13 15 16 18 21 23 26 28 29 25
72 74 70 63 54 49 42 37 33 23 21 25 25 18 12 11 9 8 6 7 7 5 5 5 4 3 3 2 1 3 5 8 12 16 19 23 24 24 25 26 26 27 28 30
72 73 69 63 55 51 43 37 27 29 29 29 26 22 17 12 11 11 9 7 6 4 3 5 6 5 4 1 2 3 5 7 14 21 22 24 26 27 27 26 30 27 29 30
78 73 70 63 53 51 43 37 38 42 30 27 25 23 20 17 15 15 11 7 4 5 3 1 3 4 2 1 2 6 12 14 20 23 30 31 31 35 32 29 31 33 35 40
77 78 75 72 65 58 50 47 44 38 33 31 28 24 22 18 15 11 9 9 7 4 5 5 4 5 7 13 16 20 22 22 26 29 32 35 33 35 33 35 38 42 44 52
81 82 76 74 72 66 58 51 48 40 36 32 28 23 20 20 16 15 15 14 13 13 14 16 13 12 12 16 22 27 29 29 27 32 33 39 38 36 38 39 43 48 53 57
84 83 80 74 70 65 60 58 54 44 41 36 34 34 30 25 21 21 21 18 18 19 20 22 20 19 18 21 25 28 28 27 28 32 41 40 40 44 49 51 54 56 56 59
Wind_Direction
287 288 305 326 328 334 331 327 300 281 287 308 343 7 4 9 358 341 283 200 199 192 196 195 203 203 166 133 107 75 51 98 124 143 158 167 181 177 175 179 190 193 204 212
280 292 292 306 316 342 328 326 302 294 267 309 352 346 350 1 11 22 48 200 168 167 168 178 172 185 178 152 131 109 73 90 134 149 156 164 179 187 178 186 193 204 205 209
271 277 289 290 314 333 336 311 334 347 360 330 16 358 353 23 28 44 86 113 174 175 156 141 156 174 167 165 165 135 142 97 128 159 155 163 177 187 186 183 191 202 207 212
257 269 281 285 306 328 334 324 359 76 27 19 12 4 356 37 43 46 74 88 128 174 180 166 133 154 175 169 171 152 152 138 133 147 167 161 172 184 191 194 201 207 210 215
258 265 275 287 298 311 320 311 328 12 180 337 354 8 51 46 37 44 68 76 80 85 180 191 184 160 163 174 174 167 158 173 163 157 168 185 184 186 195 201 204 209 209 211
248 249 259 275 290 292 298 310 345 73 76 43 23 18 57 59 69 83 84 85 79 77 82 104 182 223 215 203 187 176 179 185 184 171 174 184 197 199 198 204 203 206 209 217
231 236 249 262 276 286 296 260 81 84 92 40 5 41 66 62 71 82 83 76 68 65 64 72 118 170 210 234 227 210 196 193 194 198 185 188 208 214 214 209 212 213 217 222
225 229 241 248 262 276 282 302 76 86 110 346 8 44 72 68 72 76 78 68 60 55 53 65 69 86 108 111 215 214 215 208 204 203 206 207 201 215 220 221 220 218 219 224
218 225 231 234 244 257 257 282 89 108 164 17 13 13 76 77 71 66 76 70 58 54 53 54 58 59 57 68 73 99 186 208 212 212 215 215 217 214 215 219 223 224 228 234
215 219 224 226 229 235 237 258 119 128 206 285 346 28 73 77 71 55 63 60 42 36 37 38 54 64 58 58 66 78 85 164 206 216 220 224 225 226 228 231 232 232 238 241
211 209 214 222 220 228 228 236 244 196 269 272 321 308 356 87 62 54 51 49 33 25 16 7 12 28 35 31 41 56 64 84 103 168 219 229 234 236 237 240 242 244 249 255
209 203 206 219 218 223 215 215 214 172 314 272 293 316 102 88 66 42 42 35 27 14 13 7 1 9 15 17 16 17 30 46 66 80 76 66 70 233 239 243 247 248 250 255
207 202 207 210 216 223 216 212 191 154 204 299 6 25 111 76 46 35 43 31 24 20 20 11 8 10 10 7 4 5 11 22 27 83 55 16 18 15 285 279 274 275 265 248
201 202 202 202 208 215 218 208 187 192 204 271 39 75 76 69 43 32 42 42 32 27 23 22 20 17 14 11 6 1 354 358 356 350 331 339 346 335 314 306 275 260 267 252
200 195 201 212 207 216 222 214 206 200 204 222 241 192 14 31 34 29 30 25 9 17 21 29 30 40 46 49 52 56 69 74 47 309 312 346 355 334 292 284 278 268 254 281
199 193 200 205 207 215 220 220 214 208 213 219 249 267 293 310 6 46 10 360 341 3 12 17 16 24 42 63 74 88 63 35 18 10 357 349 342 334 325 317 319 261 250 283
197 194 198 205 205 210 217 221 219 221 209 230 246 253 270 280 342 31 1 358 3 15 28 26 356 341 353 6 18 18 12 12 6 360 350 345 339 333 328 321 313 308 304 303
195 193 196 204 206 201 214 219 214 213 211 221 223 227 247 276 336 22 346 12 37 26 62 69 60 46 48 46 41 31 22 13 11 9 3 354 346 336 327 323 319 316 311 309
195 193 193 204 197 205 208 213 209 209 226 227 207 226 237 242 203 360 263 216 92 48 75 73 71 78 66 53 48 49 50 46 41 26 16 360 350 341 337 332 327 322 319 319
197 193 192 198 196 202 204 210 209 221 239 208 190 199 214 228 205 204 220 209 174 140 115 102 104 101 87 95 96 86 63 42 20 13 5 355 347 339 336 332 327 326 328 338
200 195 191 194 192 200 197 208 209 220 212 189 183 183 194 217 199 179 196 198 184 173 182 157 159 145 128 98 55 360 11 16 14 4 357 357 356 346 343 341 336 333 331 325
201 196 192 190 191 201 200 200 198 210 208 191 181 173 173 188 179 165 171 157 126 138 190 194 199 195 187 131 36 49 36 13 9 2 357 358 354 348 339 333 325 329 331 327
199 194 190 186 185 201 200 192 197 208 203 195 181 169 168 163 155 152 163 162 155 76 60 116 180 161 150 180 354 356 351 348 346 349 345 344 346 345 338 334 329 327 317 319
195 193 190 184 184 194 195 197 204 205 200 194 185 186 177 180 184 186 209 242 258 266 286 324 325 303 297 319 328 327 327 332 337 338 339 338 339 337 336 334 334 331 327 326
194 194 188 185 185 195 196 197 207 203 204 204 208 207 209 204 221 226 237 249 261 274 286 290 294 308 319 328 329 325 318 319 318 327 330 331 332 331 329 331 334 336 335 329
194 192 189 185 188 197 198 199 207 205 211 210 212 216 225 228 230 242 246 254 265 272 278 283 295 309 314 315 309 319 317 314 320 326 324 324 326 324 325 325 327 335 337 333
Height
10972 10971 10971 10969 10969 10969 10967 10965 10966 10966 10965 10964 10963 10961 10957 10954 10950 10947 10946 10947 10949 10950 10951 10951 10952 10954 10955 10957 10955 10953 10952 10949 10950 10954 10959 10964 10969 10975 10979 10986 10992 10998 11003 11006
10970 10969 10969 10968 10968 10967 10966 10965 10964 10964 10964 10965 10963 10961 10959 10954 10947 10943 10942 10943 10946 10948 10950 10950 10952 10953 10955 10956 10957 10955 10955 10955 10954 10957 10961 10966 10970 10974 10980 10987 10992 10996 10999 11003
10968 10967 10967 10967 10967 10965 10963 10962 10962 10962 10964 10964 10962 10961 10957 10951 10946 10943 10942 10942 10944 10946 10948 10950 10952 10953 10955 10956 10956 10957 10958 10958 10959 10960 10963 10968 10972 10976 10981 10985 10990 10993 10996 10998
10963 10964 10965 10965 10965 10963 10962 10961 10961 10962 10963 10964 10961 10960 10955 10949 10946 10945 10942 10942 10945 10946 10947 10948 10950 10952 10954 10956 10957 10958 10959 10962 10962 10963 10965 10968 10973 10978 10982 10985 10989 10991 10994 10997
10960 10961 10962 10964 10964 10963 10963 10962 10962 10962 10963 10963 10961 10958 10954 10950 10948 10947 10945 10944 10947 10948 10948 10948 10949 10951 10952 10954 10956 10958 10959 10962 10963 10963 10966 10969 10973 10978 10981 10983 10986 10989 10992 10994
10956 10957 10958 10961 10964 10963 10962 10962 10961 10961 10961 10962 10960 10958 10955 10953 10953 10952 10950 10948 10950 10950 10949 10948 10948 10948 10950 10951 10952 10954 10957 10960 10962 10964 10966 10969 10972 10976 10979 10981 10984 10987 10990 10993
10949 10952 10954 10959 10961 10961 10961 10961 10962 10960 10960 10961 10960 10959 10956 10955 10955 10955 10953 10951 10954 10953 10952 10950 10949 10949 10949 10949 10950 10951 10953 10956 10959 10963 10966 10969 10972 10975 10978 10979 10982 10986 10988 10990
10942 10946 10951 10956 10957 10958 10958 10959 10960 10959 10960 10962 10961 10959 10957 10958 10959 10958 10956 10953 10956 10957 10956 10954 10953 10952 10951 10949 10948 10949 10950 10953 10956 10960 10963 10966 10970 10972 10974 10978 10979 10980 10981 10983
10934 10941 10945 10951 10954 10955 10955 10958 10958 10959 10961 10962 10962 10960 10958 10959 10960 10960 10957 10955 10959 10960 10960 10958 10956 10955 10954 10952 10951 10949 10949 10950 10953 10957 10960 10963 10966 10967 10971 10973 10974 10978 10979 10981
10924 10935 10940 10946 10951 10952 10952 10955 10956 10958 10961 10962 10962 10961 10961 10961 10961 10961 10956 10955 10958 10958 10958 10958 10957 10957 10957 10956 10955 10953 10952 10951 10952 10955 10957 10960 10962 10964 10966 10967 10970 10973 10974 10975
10918 10928 10934 10940 10946 10948 10950 10954 10956 10957 10960 10961 10961 10962 10962 10961 10961 10960 10956 10955 10957 10956 10956 10955 10955 10955 10955 10955 10955 10955 10953 10954 10954 10955 10957 10958 10959 10959 10962 10963 10965 10967 10969 10969
10912 10920 10928 10934 10942 10945 10947 10951 10954 10955 10958 10961 10961 10960 10960 10959 10960 10959 10956 10956 10958 10958 10958 10957 10955 10954 10953 10953 10953 10953 10953 10955 10956 10956 10956 10957 10956 10956 10958 10959 10961 10962 10963 10963
10903 10915 10921 10932 10938 10940 10943 10947 10949 10952 10956 10962 10962 10960 10959 10957 10959 10959 10957 10958 10959 10959 10959 10958 10957 10956 10955 10953 10953 10953 10954 10955 10956 10957 10957 10957 10957 10957 10956 10956 10958 10957 10958 10958
10894 10905 10918 10924 10925 10932 10937 10941 10944 10948 10954 10961 10961 10960 10958 10957 10959 10959 10958 10959 10961 10960 10960 10960 10958 10957 10956 10955 10955 10954 10954 10955 10956 10956 10956 10956 10955 10954 10955 10956 10956 10956 10955 10955
10885 10898 10909 10913 10924 10928 10933 10938 10941 10944 10952 10958 10959 10959 10958 10958 10959 10958 10959 10960 10961 10962 10961 10961 10960 10959 10958 10958 10958 10958 10958 10958 10958 10958 10957 10956 10955 10954 10953 10953 10952 10952 10952 10951
10879 10891 10898 10906 10918 10924 10928 10933 10939 10944 10950 10954 10956 10957 10958 10959 10959 10958 10960 10961 10962 10961 10960 10960 10960 10960 10960 10959 10959 10958 10958 10957 10956 10956 10954 10953 10953 10952 10951 10949 10948 10947 10946 10945
10871 10883 10891 10901 10910 10918 10927 10932 10937 10942 10947 10951 10952 10955 10955 10956 10956 10956 10958 10958 10959 10959 10959 10959 10959 10958 10957 10957 10956 10955 10954 10953 10952 10951 10950 10948 10947 10945 10944 10942 10941 10940 10938 10936
10861 10873 10884 10889 10900 10916 10920 10927 10932 10936 10940 10945 10950 10951 10952 10954 10953 10955 10957 10958 10958 10958 10957 10957 10957 10956 10956 10955 10954 10954 10953 10952 10951 10950 10948 10947 10945 10943 10941 10938 10936 10933 10931 10929
10848 10860 10875 10883 10900 10909 10916 10923 10929 10933 10936 10941 10945 10948 10950 10951 10952 10954 10957 10957 10957 10957 10956 10956 10956 10956 10955 10954 10954 10954 10954 10953 10951 10950 10948 10946 10944 10942 10939 10936 10933 10930 10927 10923
10834 10847 10860 10875 10892 10903 10912 10917 10922 10926 10933 10936 10939 10942 10946 10949 10951 10952 10955 10956 10956 10956 10957 10957 10957 10957 10956 10955 10956 10955 10954 10952 10951 10949 10947 10944 10942 10939 10936 10932 10929 10924 10920 10915
10826 10840 10859 10872 10887 10893 10903 10911 10918 10927 10928 10931 10934 10937 10942 10947 10949 10950 10953 10954 10955 10956 10956 10956 10957 10956 10956 10955 10955 10954 10952 10949 10948 10945 10942 10941 10938 10935 10931 10926 10922 10917 10912 10905
10821 10837 10854 10869 10883 10885 10897 10908 10917 10918 10924 10926 10930 10933 10938 10945 10946 10948 10951 10953 10953 10954 10954 10954 10954 10954 10954 10954 10952 10950 10947 10945 10943 10941 10938 10936 10934 10930 10925 10920 10915 10909 10902 10895
10805 10830 10848 10865 10883 10881 10893 10902 10904 10906 10920 10925 10927 10930 10935 10941 10944 10945 10949 10951 10952 10953 10954 10953 10952 10951 10951 10950 10948 10947 10944 10942 10939 10936 10933 10930 10926 10922 10917 10911 10907 10902 10894 10887
10801 10820 10834 10847 10863 10870 10880 10890 10893 10904 10913 10920 10923 10927 10931 10937 10940 10942 10945 10947 10950 10950 10951 10952 10950 10948 10947 10947 10945 10942 10939 10936 10933 10930 10926 10921 10917 10913 10909 10904 10899 10893 10885 10876
10792 10808 10828 10842 10850 10857 10870 10881 10886 10896 10906 10914 10920 10924 10927 10931 10935 10938 10941 10943 10945 10945 10946 10946 10946 10945 10944 10943 10941 10937 10933 10929 10926 10923 10919 10914 10910 10905 10900 10895 10889 10882 10875 10864
10781 10801 10817 10839 10851 10859 10866 10872 10879 10890 10899 10905 10912 10918 10922 10927 10929 10932 10935 10938 10940 10940 10940 10940 10940 10939 10938 10937 10934 10930 10926 10922 10919 10915 10910 10905 10901 10896 10890 10885 10878 10871 10863 10854